COSMOS 2251 DEB, 35711

Orbit data source: Space-Track

COSMOS 2251 DEB, 35711 is space debris in LEO originally from a launch on Wed, 16 Jun 1993 UTC launched from the Plesetsk Missile And Space Complex (PKMTR). The debris from Iridium 33, an American commercial communications satellite, has been tracked extensively since its accidental collision with the defunct Russian satellite Cosmos 2251 in 2009. This event, occurring at high speed in low Earth orbit (LEO), generated thousands of pieces of space debris, significantly increasing the risk of further collisions. The Iridium 33 debris cloud has impacted space traffic management and orbital debris mitigation strategies, making it a subject of ongoing study in space situational awareness.

Loading next visibility...
Identifier
35711, 1993-036AQG
Orbit
LEO
Country
Flag of CISCIS
Related business
Manufacturer
Unknown
Mission
Spacecraft
Bus & Motor
Unknown
Mass
Unknown
Launch date (UTC)
1993-06-16 (33 years ago)
Launch vehicle
Unknown
Launch site
Plesetsk Missile And Space Complex (PKMTR)
Object type
Payload
Rocket body
Debris
Shape & HBR
Unknown shape, 0.1 m
Radar Cross Section
Small (<0.1 m²)

Expand to show TLE details & history
Last TLE update: 17 hours ago

TLE from 17 hours ago
0 COSMOS 2251 DEB
1 35711U 93036AQG 26106.38171985  .00000623  00000-0  11843-3 0  9996
2 35711  74.0467 341.2112 0083216  50.6323 310.2178 14.64205940895953
Epoch: 2026-04-16T09:09Z
TLE epoch observation values (Epoch: 2026-04-16T09:09:40.595Z)
Latitude
-0°
Longitude
-0.73802°
Altitude
644.63 km
Speed
7.556 km/s
True Right ascension
22h 44m 50s
True Declination
0° 00' 00"
Sunlit
Object was in daylight at epoch
Visualization orbit readout
Latitude
Unknown
Longitude
Unknown
Altitude
Unknown
Speed
Unknown
Apparent Right ascension
Unknown
Apparent Declination
Unknown
Sunlit
N/A
Visualization observer readout
Local Sidereal Time
08:39:00
Azimuth
Unknown
Elevation
Unknown
Doppler factor
Unknown
Orbital elements
Apogee altitude
735.929 km
Perigee altitude
618.506 km
Semi-major axis
7,055.355 km
Eccentricity
0.00832
Inclination
74.0467°
RAAN
341.2112°
Arg. of periapsis
50.6323°
True anomaly
309.48474°
Mean anomaly
310.2178°
Eccentric anomaly
309.85176°
Mean motion
3.66239 °/min
Orbital period
98.3 mins
BSTAR
0.00011843
Loading maneuver chart data...
Computing Atmospheric mass density...
Loading historical data...
Loading historical data...
Loading historical data...
Loading historical data...
Loading historical data...
Loading historical data...
Loading historical data...

Documentation

Showing up to 5 results
|